contact:dominique.lefevre@mio.osupytheas.fr, maurice.libes@osupytheas.fr, didier.mallarino@osupytheas.fr
Project:EMSO http://www.emso-fr.org/EMSO-France
Depth: 2436.0 m
Title:EMSO Ligure Ouest : Data MII capteur AQUADOPP
Date,Latitude,Longitude,X_East,Y_North,Z_Up,Amplitude_X,Amplitude_Y,Amplitude_Z,Batterie,SoundSpeed,Heading,Pitch,Roll,Pressure,TIS,Speed,Direction
, degrees North, degrees East, m.s-1, m.s-1,m.s-1, 1, 1, 1, Volt, m.s-1, degree, degree, degree, dbar, degree_C, m.s-1, degree
2023-06-04T00:01:03,42.805,6.029,-0.01,0.033,0.005,101.0,101.0,101.0,13.3,1505.2,346.4,-0.8,1.8,2471.374,13.29,0.034,343.1
2023-06-04T00:04:03,42.805,6.029,-0.016,0.01,0.001,102.0,101.0,101.0,13.4,1505.2,333.8,-0.8,1.8,2471.358,13.29,0.018,302.0
2023-06-04T00:07:03,42.805,6.029,0.004,0.035,0.001,101.0,103.0,101.0,13.3,1505.2,326.3,-0.7,1.8,2471.377,13.29,0.035,6.5
2023-06-04T00:10:03,42.805,6.029,0.001,0.016,-0.02,102.0,100.0,101.0,13.3,1505.2,326.3,-0.8,1.8,2471.369,13.29,0.016,3.6
2023-06-04T00:13:03,42.805,6.029,-0.018,0.016,-0.054,101.0,101.0,101.0,13.4,1505.2,348.6,-0.8,1.8,2471.36,13.29,0.024,311.6
2023-06-04T00:16:03,42.805,6.029,0.018,0.045,0.011,101.0,101.0,101.0,13.4,1505.2,348.2,-0.8,1.8,2471.37,13.29,0.048,21.8
2023-06-04T00:19:03,42.805,6.029,-0.005,0.02,-0.017,102.0,101.0,101.0,13.3,1505.2,327.5,-0.8,1.8,2471.374,13.29,0.02,346.0
2023-06-04T00:22:03,42.805,6.029,-0.013,0.015,-0.024,102.0,101.0,101.0,13.3,1505.2,330.9,-0.7,1.8,2471.37,13.29,0.019,319.1
2023-06-04T00:25:03,42.805,6.029,-0.002,0.024,-0.012,102.0,100.0,101.0,13.4,1505.2,327.3,-0.7,1.8,2471.369,13.29,0.024,355.2
2023-06-04T00:28:03,42.805,6.029,-0.005,0.015,-0.023,101.0,101.0,100.0,13.4,1505.2,348.4,-0.8,1.8,2471.374,13.3,0.015,341.6
2023-06-04T00:31:03,42.805,6.029,0.033,0.002,-0.023,101.0,102.0,101.0,13.4,1505.2,326.3,-0.7,1.8,2471.393,13.29,0.033,86.5
2023-06-04T00:34:03,42.805,6.029,0.0,0.027,0.018,102.0,101.0,101.0,13.3,1505.2,336.5,-0.8,1.8,2471.375,13.3,0.026,0.0
2023-06-04T00:37:03,42.805,6.029,-0.012,0.02,-0.032,100.0,102.0,100.0,13.4,1505.2,325.7,-0.7,1.8,2471.347,13.3,0.023,329.0
2023-06-04T00:40:03,42.805,6.029,-0.019,0.027,-0.053,101.0,102.0,101.0,13.4,1505.2,326.3,-0.8,1.8,2471.357,13.3,0.033,324.9
2023-06-04T00:43:03,42.805,6.029,0.013,0.015,-0.04,100.0,102.0,100.0,13.4,1505.2,329.7,-0.8,1.8,2471.375,13.3,0.019,40.9
2023-06-04T00:46:03,42.805,6.029,0.002,0.015,-0.03,103.0,103.0,101.0,13.4,1505.2,348.2,-0.7,1.8,2471.37,13.3,0.015,7.6
2023-06-04T00:49:03,42.805,6.029,-0.001,0.024,-0.019,102.0,102.0,100.0,13.4,1505.2,323.1,-0.8,1.8,2471.418,13.29,0.024,357.6
2023-06-04T00:52:03,42.805,6.029,-0.012,0.045,0.022,103.0,103.0,99.0,13.3,1505.2,326.8,-0.8,1.8,2471.358,13.3,0.046,345.1
2023-06-04T00:55:03,42.805,6.029,0.008,0.008,-0.029,100.0,103.0,101.0,13.3,1505.2,329.3,-0.8,1.8,2471.36,13.3,0.011,45.0
2023-06-04T00:58:03,42.805,6.029,-0.012,0.043,-0.01,102.0,103.0,101.0,13.4,1505.2,329.3,-0.8,1.8,2471.321,13.3,0.044,344.4
2023-06-04T01:04:03,42.805,6.029,0.006,0.018,-0.001,102.0,102.0,101.0,13.4,1505.2,330.6,-0.8,1.8,2471.391,13.29,0.018,18.4
2023-06-04T01:07:03,42.805,6.029,0.012,0.011,-0.029,102.0,101.0,101.0,13.4,1505.2,331.4,-0.8,1.8,2471.398,13.29,0.016,47.5
2023-06-04T01:10:03,42.805,6.029,0.012,0.005,-0.016,102.0,101.0,101.0,13.3,1505.2,349.5,-0.8,1.8,2471.375,13.29,0.013,67.4
2023-06-04T01:13:03,42.805,6.029,-0.014,0.028,-0.058,100.0,101.0,100.0,13.4,1505.2,322.5,-0.7,1.8,2471.392,13.29,0.031,333.4
2023-06-04T01:16:03,42.805,6.029,0.018,0.026,0.005,103.0,100.0,101.0,13.4,1505.2,328.4,-0.8,1.8,2471.364,13.29,0.031,34.7
2023-06-04T01:19:03,42.805,6.029,-0.008,0.013,-0.031,100.0,102.0,101.0,13.3,1505.2,327.1,-0.8,1.8,2471.412,13.29,0.015,328.4
2023-06-04T01:22:03,42.805,6.029,-0.01,0.038,-0.022,101.0,102.0,100.0,13.4,1505.2,348.6,-0.8,1.8,2471.355,13.29,0.039,345.3
2023-06-04T01:25:03,42.805,6.029,0.008,0.03,-0.01,102.0,101.0,101.0,13.3,1505.2,333.8,-0.8,1.8,2471.356,13.29,0.031,14.9
2023-06-04T01:28:03,42.805,6.029,0.018,-0.015,-0.028,99.0,101.0,102.0,13.4,1505.2,318.9,-0.8,1.8,2471.355,13.29,0.023,129.8
2023-06-04T01:31:03,42.805,6.029,0.003,0.034,-0.003,101.0,100.0,102.0,13.3,1505.2,327.8,-0.8,1.8,2471.344,13.29,0.034,5.0
2023-06-04T01:34:03,42.805,6.029,-0.001,0.034,-0.007,104.0,100.0,101.0,13.3,1505.2,330.9,-0.7,1.8,2471.336,13.29,0.034,358.3
2023-06-04T01:37:03,42.805,6.029,0.02,0.044,-0.006,100.0,100.0,101.0,13.3,1505.2,342.7,-0.8,1.8,2471.351,13.29,0.048,24.4
2023-06-04T01:40:03,42.805,6.029,0.0,0.02,0.002,102.0,101.0,100.0,13.3,1505.2,325.3,-0.8,1.8,2471.321,13.29,0.02,0.0
2023-06-04T01:43:03,42.805,6.029,0.025,0.01,-0.011,102.0,100.0,101.0,13.4,1505.2,337.5,-0.7,1.8,2471.342,13.29,0.026,68.2
2023-06-04T01:46:03,42.805,6.029,0.018,0.014,-0.007,101.0,101.0,100.0,13.4,1505.2,339.7,-0.7,1.8,2471.348,13.29,0.022,52.1
2023-06-04T01:49:03,42.805,6.029,0.017,0.001,-0.026,103.0,100.0,100.0,13.3,1505.2,337.9,-0.8,1.8,2471.304,13.3,0.017,86.6
2023-06-04T01:52:03,42.805,6.029,0.04,0.0,-0.065,104.0,102.0,99.0,13.4,1505.2,319.4,-0.8,1.8,2471.331,13.3,0.04,90.0
2023-06-04T01:55:03,42.805,6.029,0.005,0.004,-0.048,101.0,100.0,101.0,13.4,1505.2,337.3,-0.7,1.8,2471.328,13.3,0.006,51.3
2023-06-04T01:58:03,42.805,6.029,0.003,0.013,-0.019,101.0,101.0,101.0,13.4,1505.2,325.4,-0.8,1.8,2471.339,13.3,0.013,13.0
2023-06-04T02:04:03,42.805,6.029,0.001,0.008,-0.049,102.0,101.0,100.0,13.3,1505.2,317.7,-0.8,1.8,2471.387,13.29,0.008,7.1
2023-06-04T02:07:03,42.805,6.029,0.0,0.039,-0.012,99.0,103.0,100.0,13.4,1505.2,338.2,-0.7,1.8,2471.419,13.29,0.039,0.0
2023-06-04T02:10:03,42.805,6.029,-0.009,0.029,-0.013,101.0,103.0,101.0,13.3,1505.2,336.1,-0.8,1.8,2471.395,13.29,0.03,342.8
2023-06-04T02:13:03,42.805,6.029,0.01,0.0,-0.044,100.0,101.0,102.0,13.4,1505.2,333.4,-0.8,1.8,2471.398,13.29,0.01,90.0
2023-06-04T02:16:03,42.805,6.029,0.0,0.022,0.005,101.0,100.0,101.0,13.4,1505.2,342.2,-0.8,1.8,2471.36,13.29,0.022,0.0
2023-06-04T02:19:03,42.805,6.029,0.005,0.016,-0.008,103.0,100.0,101.0,13.4,1505.2,348.2,-0.8,1.8,2471.365,13.29,0.016,17.4
2023-06-04T02:22:03,42.805,6.029,-0.029,0.025,-0.029,100.0,101.0,100.0,13.3,1505.2,331.9,-0.8,1.8,2471.335,13.29,0.038,310.8
2023-06-04T02:25:03,42.805,6.029,0.01,0.024,-0.017,100.0,101.0,100.0,13.3,1505.2,330.4,-0.7,1.8,2471.311,13.3,0.026,22.6
2023-06-04T02:28:03,42.805,6.029,0.025,0.021,-0.011,103.0,101.0,99.0,13.4,1505.2,327.4,-0.8,1.8,2471.362,13.3,0.032,50.0
2023-06-04T02:31:03,42.805,6.029,-0.003,0.016,-0.015,100.0,102.0,103.0,13.3,1505.2,345.6,-0.8,1.8,2471.345,13.3,0.016,349.4
2023-06-04T02:34:03,42.805,6.029,0.028,0.009,-0.012,102.0,101.0,100.0,13.4,1505.2,331.1,-0.8,1.8,2471.351,13.3,0.029,72.2
2023-06-04T02:37:03,42.805,6.029,0.001,0.022,-0.018,101.0,102.0,101.0,13.4,1505.2,320.8,-0.8,1.8,2471.334,13.3,0.022,2.6
2023-06-04T02:40:03,42.805,6.029,0.004,0.026,0.005,102.0,103.0,100.0,13.4,1505.2,329.8,-0.8,1.8,2471.318,13.3,0.026,8.7
2023-06-04T02:43:03,42.805,6.029,-0.017,0.018,-0.02,102.0,101.0,101.0,13.4,1505.2,344.2,-0.7,1.8,2471.35,13.3,0.024,316.6
2023-06-04T02:46:03,42.805,6.029,0.009,0.016,-0.034,101.0,102.0,101.0,13.4,1505.2,332.4,-0.7,1.8,2471.372,13.3,0.018,29.4
2023-06-04T02:49:03,42.805,6.029,0.0,0.02,-0.035,100.0,103.0,99.0,13.4,1505.2,329.6,-0.8,1.8,2471.347,13.3,0.02,0.0
2023-06-04T02:52:03,42.805,6.029,0.0,0.002,-0.04,102.0,101.0,99.0,13.4,1505.2,327.1,-0.8,1.8,2471.371,13.29,0.002,0.0
2023-06-04T02:55:03,42.805,6.029,0.02,0.013,-0.006,100.0,101.0,101.0,13.4,1505.2,332.9,-0.8,1.8,2471.363,13.29,0.023,57.0
2023-06-04T02:58:03,42.805,6.029,-0.015,0.022,-0.02,101.0,100.0,101.0,13.4,1505.2,323.5,-0.8,1.8,2471.351,13.29,0.026,325.7
2023-06-04T03:04:03,42.805,6.029,-0.011,0.025,-0.022,101.0,100.0,102.0,13.4,1505.2,323.1,-0.8,1.8,2471.381,13.29,0.027,336.3
2023-06-04T03:07:03,42.805,6.029,0.007,0.022,0.0,101.0,101.0,100.0,13.4,1505.2,337.8,-0.7,1.8,2471.411,13.29,0.023,17.6
2023-06-04T03:10:03,42.805,6.029,0.004,0.013,-0.012,99.0,101.0,101.0,13.4,1505.2,329.5,-0.8,1.8,2471.443,13.29,0.013,17.1
2023-06-04T03:13:03,42.805,6.029,0.013,0.004,-0.058,100.0,99.0,102.0,13.3,1505.2,347.5,-0.7,1.8,2471.379,13.29,0.013,72.9
2023-06-04T03:16:03,42.805,6.029,-0.013,0.024,-0.038,100.0,101.0,101.0,13.4,1505.2,339.1,-0.7,1.8,2471.367,13.29,0.027,331.6
2023-06-04T03:19:03,42.805,6.029,0.007,0.037,-0.007,101.0,99.0,102.0,13.4,1505.2,322.0,-0.8,1.8,2471.397,13.29,0.037,10.7
2023-06-04T03:22:03,42.805,6.029,0.007,0.0,-0.028,100.0,101.0,101.0,13.4,1505.2,334.3,-0.8,1.8,2471.41,13.29,0.007,90.0
2023-06-04T03:25:03,42.805,6.029,0.018,0.023,-0.028,101.0,102.0,100.0,13.4,1505.2,332.9,-0.7,1.8,2471.352,13.29,0.029,38.0
2023-06-04T03:28:03,42.805,6.029,-0.006,0.015,-0.022,101.0,100.0,102.0,13.4,1505.2,328.1,-0.8,1.8,2471.372,13.29,0.016,338.2
2023-06-04T03:31:03,42.805,6.029,0.018,-0.006,-0.026,100.0,102.0,101.0,13.4,1505.2,325.4,-0.8,1.8,2471.368,13.29,0.018,108.4
2023-06-04T03:34:03,42.805,6.029,0.013,0.027,0.011,101.0,103.0,100.0,13.4,1505.2,327.7,-0.8,1.8,2471.379,13.29,0.029,25.7
2023-06-04T03:37:03,42.805,6.029,0.003,0.013,-0.02,102.0,101.0,100.0,13.4,1505.2,349.9,-0.8,1.8,2471.359,13.29,0.013,13.0
2023-06-04T03:40:03,42.805,6.029,-0.007,0.034,-0.025,101.0,101.0,100.0,13.4,1505.2,320.9,-0.8,1.8,2471.367,13.29,0.034,348.4
2023-06-04T03:43:03,42.805,6.029,-0.013,0.014,-0.006,102.0,102.0,100.0,13.4,1505.2,332.4,-0.8,1.8,2471.34,13.29,0.019,317.1
2023-06-04T03:46:03,42.805,6.029,0.015,0.018,0.002,101.0,100.0,101.0,13.4,1505.2,332.9,-0.7,1.8,2471.396,13.29,0.023,39.8
2023-06-04T03:49:03,42.805,6.029,-0.011,0.047,0.013,99.0,101.0,102.0,13.4,1505.2,333.4,-0.7,1.8,2471.424,13.29,0.048,346.8
2023-06-04T03:52:03,42.805,6.029,0.017,0.031,-0.01,100.0,101.0,101.0,13.3,1505.2,328.2,-0.7,1.8,2471.373,13.29,0.035,28.7
2023-06-04T03:55:03,42.805,6.029,0.005,0.027,-0.036,101.0,101.0,100.0,13.3,1505.2,335.4,-0.7,1.8,2471.387,13.29,0.027,10.5
2023-06-04T03:58:03,42.805,6.029,-0.01,0.038,-0.012,103.0,102.0,100.0,13.4,1505.2,335.5,-0.8,1.8,2471.391,13.29,0.039,345.3
2023-06-04T04:04:03,42.805,6.029,0.004,0.013,-0.021,102.0,101.0,101.0,13.3,1505.2,324.3,-0.8,1.8,2471.449,13.29,0.013,17.1
2023-06-04T04:07:03,42.805,6.029,0.005,0.001,-0.016,102.0,100.0,100.0,13.4,1505.2,338.8,-0.8,1.8,2471.462,13.29,0.005,78.7
2023-06-04T04:10:03,42.805,6.029,0.002,0.006,-0.015,101.0,103.0,101.0,13.4,1505.2,329.9,-0.7,1.8,2471.44,13.29,0.006,18.4
2023-06-04T04:13:03,42.805,6.029,-0.015,0.036,-0.02,102.0,101.0,101.0,13.4,1505.2,346.5,-0.8,1.8,2471.431,13.29,0.039,337.4
2023-06-04T04:16:03,42.805,6.029,-0.001,0.033,0.015,102.0,100.0,100.0,13.4,1505.2,326.3,-0.7,1.8,2471.414,13.29,0.033,358.3
2023-06-04T04:19:03,42.805,6.029,0.011,0.005,-0.007,102.0,100.0,100.0,13.3,1505.2,332.9,-0.8,1.8,2471.401,13.29,0.012,65.6
2023-06-04T04:22:03,42.805,6.029,0.003,0.012,-0.028,101.0,101.0,100.0,13.4,1505.2,347.0,-0.8,1.8,2471.429,13.29,0.012,14.0
2023-06-04T04:25:03,42.805,6.029,-0.021,0.022,-0.016,101.0,100.0,102.0,13.4,1505.2,321.7,-0.7,1.8,2471.386,13.29,0.03,316.3
2023-06-04T04:28:03,42.805,6.029,0.0,0.028,-0.053,102.0,101.0,100.0,13.3,1505.2,337.9,-0.7,1.8,2471.436,13.29,0.028,0.0
2023-06-04T04:31:03,42.805,6.029,-0.001,0.023,-0.003,101.0,101.0,101.0,13.4,1505.2,339.7,-0.7,1.8,2471.45,13.29,0.023,357.5
2023-06-04T04:34:03,42.805,6.029,-0.008,0.01,-0.014,103.0,103.0,99.0,13.4,1505.2,327.9,-0.8,1.9,2471.417,13.29,0.012,321.3
2023-06-04T04:37:03,42.805,6.029,-0.012,0.017,-0.025,103.0,101.0,100.0,13.4,1505.2,325.0,-0.8,1.8,2471.425,13.29,0.02,324.8
2023-06-04T04:40:03,42.805,6.029,-0.001,0.018,-0.018,100.0,103.0,101.0,13.4,1505.2,327.8,-0.8,1.8,2471.441,13.29,0.018,356.8
2023-06-04T04:43:03,42.805,6.029,-0.002,0.03,-0.038,101.0,102.0,99.0,13.3,1505.2,337.8,-0.8,1.8,2471.468,13.29,0.03,356.2
2023-06-04T04:46:03,42.805,6.029,-0.003,0.011,0.009,100.0,101.0,100.0,13.3,1505.2,336.0,-0.8,1.8,2471.454,13.29,0.011,344.7
2023-06-04T04:49:03,42.805,6.029,-0.032,0.033,-0.011,101.0,101.0,101.0,13.4,1505.2,328.7,-0.8,1.8,2471.416,13.29,0.045,315.9
2023-06-04T04:52:03,42.805,6.029,0.023,0.022,-0.004,100.0,102.0,101.0,13.3,1505.2,348.0,-0.8,1.8,2471.477,13.29,0.031,46.3
2023-06-04T04:55:03,42.805,6.029,-0.014,0.005,-0.03,101.0,101.0,101.0,13.4,1505.2,328.1,-0.8,1.8,2471.445,13.29,0.014,289.6
2023-06-04T04:58:03,42.805,6.029,0.003,0.007,-0.012,102.0,101.0,101.0,13.4,1505.2,327.1,-0.8,1.8,2471.435,13.29,0.007,23.2
2023-06-04T05:04:03,42.805,6.029,0.002,0.036,-0.003,101.0,102.0,101.0,13.4,1505.2,335.5,-0.8,1.8,2471.46,13.29,0.036,3.2
2023-06-04T05:07:03,42.805,6.029,0.006,0.026,-0.014,101.0,101.0,100.0,13.4,1505.2,331.9,-0.8,1.8,2471.484,13.29,0.026,13.0
2023-06-04T05:10:03,42.805,6.029,-0.004,0.023,-0.03,99.0,100.0,101.0,13.3,1505.2,330.3,-0.8,1.8,2471.501,13.29,0.023,350.1
2023-06-04T05:13:03,42.805,6.029,-0.011,0.034,-0.029,100.0,101.0,101.0,13.3,1505.2,328.6,-0.7,1.8,2471.471,13.29,0.035,342.1
2023-06-04T05:16:03,42.805,6.029,0.006,0.029,0.006,101.0,100.0,101.0,13.4,1505.2,345.7,-0.8,1.8,2471.465,13.29,0.029,11.7
2023-06-04T05:19:03,42.805,6.029,0.002,0.02,-0.005,101.0,102.0,101.0,13.3,1505.2,322.3,-0.8,1.8,2471.495,13.29,0.02,5.7
2023-06-04T05:22:03,42.805,6.029,0.018,-0.01,-0.071,103.0,99.0,100.0,13.4,1505.2,334.8,-0.8,1.8,2471.447,13.29,0.02,119.1
2023-06-04T05:25:03,42.805,6.029,-0.018,0.048,-0.001,102.0,101.0,102.0,13.3,1505.2,319.7,-0.8,1.8,2471.49,13.29,0.051,339.4
2023-06-04T05:28:03,42.805,6.029,0.01,0.01,-0.037,103.0,100.0,100.0,13.4,1505.2,338.2,-0.8,1.8,2471.479,13.29,0.014,45.0
2023-06-04T05:31:03,42.805,6.029,-0.005,0.033,0.022,101.0,100.0,101.0,13.4,1505.2,332.9,-0.8,1.8,2471.45,13.29,0.033,351.4
2023-06-04T05:34:03,42.805,6.029,-0.013,0.02,-0.029,99.0,103.0,101.0,13.4,1505.2,324.3,-0.8,1.8,2471.454,13.29,0.023,327.0
2023-06-04T05:37:03,42.805,6.029,0.004,0.024,-0.024,101.0,101.0,100.0,13.3,1505.2,323.5,-0.8,1.8,2471.469,13.29,0.024,9.5
2023-06-04T05:40:03,42.805,6.029,0.0,0.036,-0.019,101.0,101.0,101.0,13.3,1505.2,329.4,-0.8,1.8,2471.481,13.29,0.036,0.0
2023-06-04T05:43:03,42.805,6.029,-0.001,0.025,-0.017,101.0,104.0,100.0,13.4,1505.2,334.4,-0.8,1.8,2471.454,13.29,0.025,357.7
2023-06-04T05:46:03,42.805,6.029,-0.019,0.023,0.0,101.0,102.0,101.0,13.4,1505.2,317.5,-0.8,1.8,2471.488,13.29,0.029,320.4
2023-06-04T05:49:03,42.805,6.029,0.011,0.035,0.031,102.0,101.0,100.0,13.4,1505.2,322.1,-0.7,1.8,2471.467,13.29,0.036,17.4
2023-06-04T05:52:03,42.805,6.029,0.01,0.021,-0.021,102.0,101.0,101.0,13.3,1505.2,333.9,-0.7,1.8,2471.467,13.29,0.023,25.5
2023-06-04T05:55:03,42.805,6.029,0.011,0.015,-0.01,101.0,101.0,100.0,13.3,1505.2,332.3,-0.8,1.8,2471.477,13.29,0.018,36.3
2023-06-04T05:58:03,42.805,6.029,0.01,-0.003,-0.07,100.0,102.0,101.0,13.4,1505.2,330.8,-0.7,1.8,2471.493,13.29,0.01,106.7
2023-06-04T06:04:03,42.805,6.029,0.005,-0.003,-0.065,101.0,101.0,100.0,13.4,1505.2,319.4,-0.8,1.8,2471.525,13.29,0.005,121.0
2023-06-04T06:07:03,42.805,6.029,0.0,0.008,-0.003,101.0,100.0,101.0,13.3,1505.2,325.4,-0.7,1.8,2471.485,13.29,0.008,0.0
2023-06-04T06:10:03,42.805,6.029,-0.007,0.005,-0.033,105.0,103.0,100.0,13.4,1505.2,339.4,-0.8,1.8,2471.531,13.29,0.008,305.5
2023-06-04T06:13:03,42.805,6.029,-0.02,0.006,-0.027,102.0,100.0,100.0,13.3,1505.2,336.1,-0.8,1.9,2471.479,13.29,0.02,286.7
2023-06-04T06:16:03,42.805,6.029,0.01,0.021,0.009,101.0,100.0,100.0,13.3,1505.2,327.7,-0.7,1.8,2471.502,13.29,0.023,25.5
2023-06-04T06:19:03,42.805,6.029,-0.005,0.02,-0.002,101.0,101.0,100.0,13.3,1505.2,334.2,-0.8,1.8,2471.505,13.29,0.02,346.0
2023-06-04T06:22:03,42.805,6.029,0.011,0.002,-0.025,100.0,102.0,101.0,13.4,1505.2,321.8,-0.8,1.8,2471.496,13.29,0.011,79.7
2023-06-04T06:25:03,42.805,6.029,0.018,0.021,-0.027,100.0,101.0,100.0,13.4,1505.2,328.2,-0.8,1.8,2471.486,13.29,0.027,40.6
2023-06-04T06:28:03,42.805,6.029,-0.007,0.032,0.005,101.0,101.0,101.0,13.3,1505.2,344.8,-0.8,1.8,2471.458,13.29,0.032,347.7
2023-06-04T06:31:03,42.805,6.029,0.017,0.019,0.0,100.0,101.0,100.0,13.4,1505.2,347.3,-0.8,1.8,2471.499,13.29,0.025,41.8
2023-06-04T06:34:03,42.805,6.029,-0.008,0.006,-0.025,101.0,100.0,101.0,13.4,1505.2,328.5,-0.7,1.8,2471.463,13.29,0.01,306.9
2023-06-04T06:37:03,42.805,6.029,0.004,0.009,0.001,102.0,100.0,100.0,13.3,1505.2,329.0,-0.8,1.8,2471.452,13.29,0.009,24.0
2023-06-04T06:40:03,42.805,6.029,0.002,0.023,-0.016,101.0,101.0,101.0,13.4,1505.2,333.4,-0.8,1.8,2471.508,13.29,0.023,5.0
2023-06-04T06:43:03,42.805,6.029,0.02,0.022,-0.015,100.0,102.0,100.0,13.4,1505.2,349.3,-0.8,1.8,2471.478,13.29,0.029,42.3
2023-06-04T06:46:03,42.805,6.029,-0.007,0.018,-0.026,102.0,100.0,101.0,13.4,1505.2,337.3,-0.8,1.8,2471.525,13.29,0.019,338.8
2023-06-04T06:49:03,42.805,6.029,-0.034,0.038,-0.007,100.0,103.0,99.0,13.4,1505.2,331.8,-0.8,1.8,2471.498,13.29,0.05,318.2
2023-06-04T06:52:03,42.805,6.029,0.006,0.027,0.003,101.0,102.0,100.0,13.3,1505.2,327.8,-0.8,1.8,2471.527,13.29,0.027,12.5
2023-06-04T06:55:03,42.805,6.029,-0.012,0.014,-0.023,101.0,101.0,100.0,13.4,1505.2,330.7,-0.8,1.8,2471.52,13.29,0.018,319.4
2023-06-04T06:58:03,42.805,6.029,0.001,0.028,-0.022,101.0,101.0,100.0,13.3,1505.2,346.5,-0.8,1.8,2471.498,13.29,0.028,2.0
2023-06-04T07:04:03,42.805,6.029,-0.017,0.018,-0.034,100.0,101.0,101.0,13.4,1505.2,329.8,-0.7,1.8,2471.541,13.29,0.024,316.6
2023-06-04T07:07:03,42.805,6.029,0.006,0.011,-0.014,102.0,101.0,101.0,13.4,1505.2,333.4,-0.8,1.8,2471.512,13.29,0.012,28.6
2023-06-04T07:10:03,42.805,6.029,-0.013,0.028,0.0,99.0,101.0,102.0,13.3,1505.2,332.5,-0.8,1.8,2471.5,13.29,0.03,335.1
2023-06-04T07:13:03,42.805,6.029,-0.016,0.02,-0.051,101.0,101.0,101.0,13.3,1505.2,326.6,-0.8,1.8,2471.518,13.29,0.025,321.3
2023-06-04T07:16:03,42.805,6.029,0.017,0.015,0.027,101.0,100.0,100.0,13.3,1505.2,347.0,-0.8,1.8,2471.519,13.29,0.022,48.6
2023-06-04T07:19:03,42.805,6.029,-0.003,0.017,-0.007,101.0,102.0,101.0,13.4,1505.2,332.4,-0.7,1.8,2471.522,13.29,0.017,350.0
2023-06-04T07:22:03,42.805,6.029,0.024,0.013,-0.015,101.0,101.0,101.0,13.4,1505.2,329.8,-0.8,1.7,2471.476,13.29,0.027,61.6
2023-06-04T07:25:03,42.805,6.029,0.016,0.006,-0.042,101.0,101.0,102.0,13.4,1505.2,329.5,-0.7,1.9,2471.477,13.29,0.017,69.4
2023-06-04T07:28:03,42.805,6.029,0.015,0.006,0.011,101.0,101.0,101.0,13.4,1505.2,337.5,-0.8,1.8,2471.477,13.29,0.016,68.2
2023-06-04T07:31:03,42.805,6.029,0.0,0.031,0.009,101.0,101.0,101.0,13.3,1505.2,321.8,-0.8,1.8,2471.472,13.29,0.03,0.0
2023-06-04T07:34:03,42.805,6.029,0.0,0.016,-0.036,101.0,102.0,101.0,13.4,1505.2,326.9,-0.8,1.8,2471.501,13.29,0.016,0.0
2023-06-04T07:37:03,42.805,6.029,-0.009,0.002,-0.052,102.0,102.0,100.0,13.3,1505.2,323.7,-0.8,1.8,2471.509,13.29,0.009,282.5
2023-06-04T07:40:03,42.805,6.029,0.021,0.016,0.001,102.0,101.0,101.0,13.3,1505.2,348.0,-0.8,1.8,2471.462,13.29,0.026,52.7
2023-06-04T07:43:03,42.805,6.029,0.006,0.005,-0.028,101.0,102.0,100.0,13.3,1505.2,324.0,-0.8,1.8,2471.486,13.29,0.007,50.2
2023-06-04T07:46:03,42.805,6.029,-0.008,0.024,-0.012,101.0,102.0,100.0,13.4,1505.2,318.3,-0.7,1.8,2471.425,13.29,0.025,341.6
2023-06-04T07:49:03,42.805,6.029,0.032,0.019,0.023,101.0,101.0,100.0,13.3,1505.2,332.1,-0.7,1.9,2471.424,13.29,0.037,59.3
2023-06-04T07:52:03,42.805,6.029,0.0,0.023,0.009,101.0,102.0,101.0,13.3,1505.2,325.4,-0.8,1.8,2471.49,13.29,0.023,0.0
2023-06-04T07:55:03,42.805,6.029,-0.009,0.024,-0.013,101.0,102.0,106.0,13.3,1505.2,346.7,-0.7,1.8,2471.467,13.29,0.025,339.4
2023-06-04T07:58:03,42.805,6.029,0.002,0.027,-0.003,103.0,101.0,102.0,13.4,1505.2,324.5,-0.8,1.8,2471.457,13.29,0.027,4.2
2023-06-04T08:04:03,42.805,6.029,0.007,0.011,-0.015,101.0,102.0,101.0,13.3,1505.2,325.4,-0.7,1.8,2471.476,13.29,0.013,32.5
2023-06-04T08:07:03,42.805,6.029,0.016,0.008,-0.009,102.0,102.0,100.0,13.4,1505.2,345.6,-0.8,1.8,2471.488,13.29,0.017,63.4
2023-06-04T08:10:03,42.805,6.029,-0.021,0.014,-0.02,100.0,103.0,100.0,13.3,1505.2,321.3,-0.8,1.8,2471.503,13.29,0.025,303.7
2023-06-04T08:13:03,42.805,6.029,0.015,0.019,0.003,101.0,103.0,102.0,13.4,1505.2,320.9,-0.8,1.8,2471.491,13.29,0.024,38.3
2023-06-04T08:16:03,42.805,6.029,0.006,0.019,-0.013,101.0,102.0,100.0,13.4,1505.2,339.4,-0.8,1.8,2471.452,13.29,0.019,17.5
2023-06-04T08:19:03,42.805,6.029,0.007,0.028,-0.013,102.0,102.0,100.0,13.4,1505.2,330.7,-0.8,1.8,2471.481,13.29,0.028,14.0
2023-06-04T08:22:03,42.805,6.029,0.015,0.005,-0.04,102.0,100.0,101.0,13.4,1505.2,344.2,-0.8,1.8,2471.474,13.29,0.015,71.6
2023-06-04T08:25:03,42.805,6.029,-0.008,0.026,-0.015,101.0,102.0,102.0,13.4,1505.2,322.7,-0.7,1.8,2471.426,13.29,0.027,342.9
2023-06-04T08:28:03,42.805,6.029,-0.012,0.044,-0.02,102.0,101.0,101.0,13.4,1505.2,330.2,-0.8,1.8,2471.452,13.29,0.045,344.7
2023-06-04T08:31:03,42.805,6.029,0.021,0.005,-0.025,101.0,101.0,101.0,13.4,1505.2,327.6,-0.8,1.9,2471.454,13.3,0.021,76.6
2023-06-04T08:34:03,42.805,6.029,-0.006,-0.002,-0.023,102.0,102.0,101.0,13.4,1505.2,327.9,-0.8,1.8,2471.475,13.3,0.006,251.6
2023-06-04T08:37:03,42.805,6.029,0.02,-0.006,-0.043,101.0,102.0,101.0,13.4,1505.2,328.5,-0.8,1.8,2471.455,13.3,0.02,106.7
2023-06-04T08:40:03,42.805,6.029,0.012,-0.004,0.002,100.0,101.0,102.0,13.4,1505.2,319.8,-0.7,1.8,2471.431,13.3,0.012,108.4
2023-06-04T08:43:03,42.805,6.029,0.016,-0.017,-0.052,102.0,101.0,101.0,13.4,1505.2,336.1,-0.8,1.8,2471.431,13.29,0.023,136.7
2023-06-04T08:46:03,42.805,6.029,-0.004,0.018,-0.019,102.0,101.0,100.0,13.4,1505.2,341.2,-0.8,1.8,2471.454,13.29,0.018,347.5
2023-06-04T08:49:03,42.805,6.029,-0.017,0.022,-0.008,101.0,101.0,100.0,13.3,1505.2,334.9,-0.7,1.8,2471.426,13.29,0.027,322.3
2023-06-04T08:52:03,42.805,6.029,0.012,0.003,-0.008,101.0,101.0,100.0,13.4,1505.2,345.2,-0.8,1.8,2471.454,13.29,0.012,76.0
2023-06-04T08:55:03,42.805,6.029,-0.035,0.031,0.0,102.0,101.0,100.0,13.4,1505.2,318.1,-0.8,1.8,2471.436,13.29,0.046,311.5
2023-06-04T08:58:03,42.805,6.029,0.0,0.015,0.006,101.0,103.0,100.0,13.4,1505.2,322.0,-0.7,1.8,2471.414,13.29,0.015,0.0
2023-06-04T09:04:03,42.805,6.029,0.004,0.005,-0.011,102.0,102.0,101.0,13.4,1505.2,326.8,-0.7,1.8,2471.494,13.29,0.006,38.7
2023-06-04T09:07:03,42.805,6.029,0.022,0.009,-0.036,102.0,101.0,100.0,13.4,1505.2,345.3,-0.7,1.8,2471.463,13.29,0.023,67.8
2023-06-04T09:10:03,42.805,6.029,-0.011,0.028,0.009,102.0,102.0,100.0,13.4,1505.2,319.4,-0.7,1.8,2471.478,13.29,0.03,338.6
2023-06-04T09:13:03,42.805,6.029,0.008,0.017,-0.032,101.0,101.0,101.0,13.4,1505.2,339.0,-0.8,1.8,2471.456,13.29,0.018,25.2
2023-06-04T09:16:03,42.805,6.029,0.001,0.016,-0.009,101.0,101.0,100.0,13.4,1505.2,335.0,-0.8,1.8,2471.461,13.29,0.016,3.6
2023-06-04T09:19:03,42.805,6.029,0.007,0.028,0.022,101.0,101.0,100.0,13.4,1505.2,346.5,-0.8,1.8,2471.404,13.29,0.028,14.0
2023-06-04T09:22:03,42.805,6.029,-0.01,0.026,-0.027,100.0,101.0,100.0,13.4,1505.2,343.8,-0.8,1.8,2471.455,13.29,0.027,339.0
2023-06-04T09:25:03,42.805,6.029,-0.005,0.021,-0.03,101.0,101.0,100.0,13.4,1505.2,323.1,-0.7,1.8,2471.449,13.29,0.021,346.6
2023-06-04T09:28:03,42.805,6.029,-0.001,0.008,-0.078,101.0,102.0,101.0,13.3,1505.2,341.2,-0.8,1.8,2471.41,13.29,0.008,352.9
2023-06-04T09:31:03,42.805,6.029,0.003,0.013,-0.014,101.0,101.0,101.0,13.4,1505.2,327.1,-0.8,1.8,2471.397,13.29,0.013,13.0
2023-06-04T09:34:03,42.805,6.029,-0.011,0.011,-0.007,100.0,102.0,101.0,13.3,1505.2,325.1,-0.8,1.8,2471.378,13.29,0.015,315.0
2023-06-04T09:37:03,42.805,6.029,-0.001,0.02,-0.019,100.0,100.0,101.0,13.4,1505.2,338.3,-0.7,1.8,2471.397,13.29,0.02,357.1
2023-06-04T09:40:03,42.805,6.029,-0.016,0.037,0.0,101.0,102.0,102.0,13.4,1505.2,326.0,-0.8,1.8,2471.422,13.29,0.04,336.6
2023-06-04T09:43:03,42.805,6.029,-0.009,0.026,-0.013,101.0,102.0,101.0,13.4,1505.2,326.5,-0.7,1.8,2471.357,13.29,0.027,340.9
2023-06-04T09:46:03,42.805,6.029,0.004,0.023,0.0,102.0,101.0,101.0,13.3,1505.2,328.8,-0.7,1.8,2471.425,13.29,0.023,9.9
2023-06-04T09:49:03,42.805,6.029,0.011,0.016,0.011,101.0,104.0,100.0,13.4,1505.2,334.4,-0.8,1.9,2471.399,13.29,0.019,34.5
2023-06-04T09:52:03,42.805,6.029,0.0,0.014,-0.029,102.0,101.0,100.0,13.3,1505.2,343.8,-0.8,1.8,2471.383,13.29,0.014,0.0
2023-06-04T09:55:03,42.805,6.029,-0.004,0.022,-0.012,101.0,101.0,101.0,13.4,1505.2,318.2,-0.8,1.8,2471.429,13.29,0.022,349.7
2023-06-04T09:58:03,42.805,6.029,0.033,0.005,0.006,101.0,102.0,100.0,13.4,1505.2,325.3,-0.7,1.8,2471.394,13.29,0.033,81.4